EHI
0 0 0 0 0 0 0 0 0 0 0 0 0 0 0 0 0 0 0 0 0 0 0 0 0 0 0 0 0 0 0 0 0 0 0 0 0 0 0 0 0 0 0
0 0 0 0 0 0 0 0 0 0 0 0 0 0 0 0 0 0 0 0 0 0 0 0 0 0 0 0 0 0 0 0 0 0 0 0 0 0 0 0 0 0 0
0 0 0 0 0 0 0 0 0 0 0 0 0 0 0 0 0 0 0 0 0 0 0 0 0 0 0 0 0 0 0 0 0 0 0 0 0 0 0 0 0 0 0
0 0 0 0 0 0 0 0 0 0 0 0 0 0 0 0 0 0 0 0 0 0 0 0 0 0 0 0 0 0 0 0 0 0 0 0 0 0 0 0 0 0 0
0 0 0 0 0 0 0 0 0 0 0 0 0 0 0 0 0 0 0 0 0 0 0 0 0 0 0 0 0 0 0 0 0 0 0 0 0 0 0 0 0 0 0
0 0 0 0 0 0 0 0 0 0 0 0 0 0 0 0 0 0 0 0 0 0 0 0 0 0 0 0 0 0 0 0 0 0 0 0 0 0 0 0 0 0 0
0 0 0 0 0 0 0 0 0 0 0 0 0 0 0 0 0 0 0 0 0 0 0 0 0 0 0 0 0 0 0 0 0 0 0 0 0 0 0 0 0 0 0
0 0 0 0 0 0 0 0 0 0 0 0 0 0 0 0 0 0 0 0 0 0 0 0 0 0 0 0 0 0 0 0 0 0 0 0 0 0 0 0 0 0 0
0 0 0 0 0 0 0 0 0 0 0 0 0 0 0 0 0 0 0 0 0 0 0 0 0 0 0 0 0 0 0 0 0 0 0 0 0 0 0 0 0 0 0
0 0 0 0 0 0 0 0 0 0 0 0 0 0 0 0 0 0 0 0 0 0 0 0 0 0 0 0 0 0 0 0 0 0 0 0 0 0 0 0 0 0 0
0 0 0 0 0 0 0 0 0 0 0 0 0 0 0 0 0 0 0 0 0 0 0 0 0 0 0 0 0 0 0 0 0 0 0 0 0 0 0 0 0 0 0
0 0 0 0 0 0 0 0 0 0 0 0 0 0 0 0 0 0 0 0 0 0 0 0 0 0 0 0 0 0 0 0 0 0 0 0 0 0 0 0 0 0 0
0 0 0 0 0 0 0 0 0 0 0 0 0 0 0 0 0 0 0 0 0 0 0 0 0 0 0 0 0 0 0 0 0 0 0 0 0 0 0 0 0 0 0
0 0 0 0 0 0 0 0 0 0 0 0 0 0 0 0 0 0 0 0 0 0 0 0 0 0 0 0 0 0 0 0 0 0 0 0 0 0 0 0 0 0 0
0 0 0 0 0 0 0 0 0 0 0 0 0 0 0 0 0 0 0 0 0 0 0 0 0 0 0 0 0 0 0 0 0 0 0 0 0 0 0 0 0 0 0
0 0 0 0 0 0 0 0 0 0 0 0 0 0 0 0 0 0 0 0 0 0 0 0 0 0 0 0 0 0 0 0 0 0 0 0 0 0 0 0 0 0 0
0 0 0 0 0 0 0 0 0 0 0 0 0 0 0 0 0 0 0 0 0 0 0 0 0 0 0 0 0 0 0 0 0 0 0 0 0 0 0 0 0 0 0
0 0 0 0 0 0 0 0 0 0 0 0 0 0 0 0 0 0 0 0 0 0 0 0 0 0 0 0 0 0 0 0 0 0 0 0 0 0 0 0 0 0 0
0 0 0 0 0 0 0 0 0 0 0 0 0 0 0 0 0 0 0 0 0 0 0 0 0 0 0 0 0 0 0 0 0 0 0 0 0 0 0 0 0 0 0
0 0 0 0 0 0 0 0 0 0 0 0 0 0 0 0 0 0 0 0 0 0 0 0 0 0 0 0 0 0 0 0 0 0 0 0 0 0 0 0 0 0 0
0 0 0 0 0 0 0 0 0 0 0 0 0 0 0 0 0 0 0 0 0 0 0 0 0 0 0 0 0 0 0 0 0 0 0 0 0 0 0 0 0 0 0
0 0 0 0 0 0 0 0 0 0 0 0 0 0 0 0 0 0 0 0 0 0 0 0 0 0 0 0 0 0 0 0 0 0 0 0 0 0 0 0 0 0 0
0 0 0 0 0 0 0 0 0 0 0 0 0 0 0 0 0 0 0 0 0 0 0 0 0 0 0 0 0 0 0 0 0 0 0 0 0 0 0 0 0 0 0
0 0 0 0 0 0 0 0 0 0 0 0 0 0 0 0 0 0 0 0 0 0 0 0 0 0 0 0 0 0 0 0 0 0 0 0 0 0 0 0 0 0 0
0 0 0 0 0 0 0 0 0 0 0 0 0 0 0 0 0 0 0 0 0 0 0 0 0 0 0 0 0 0 0 0 0 0 0 0 0 0 0 0 0 0 0
0 0 0 0 0 0 0 0 0 0 0 0 0 0 0 0 0 0 0 0 0 0 0 0 0 0 0 0 0 0 0 0 0 0 0 0 0 0 0 0 0 0 0
Wind_Speed
2 2 2 2 3 3 3 3 3 4 4 4 4 4 4 4 3 3 3 6 7 6 6 6 6 6 6 5 5 5 5 4 4 5 5 5 5 6 6 5 5 5 4
2 2 2 2 2 2 2 2 3 3 3 3 4 4 3 3 3 3 3 4 7 7 6 5 5 5 5 5 6 6 5 5 4 4 4 5 4 4 5 5 5 5 4
2 2 2 2 2 2 3 3 3 3 3 3 3 3 3 3 3 3 3 3 3 6 7 6 5 5 4 4 5 5 5 4 4 3 3 3 4 3 4 4 4 4 4
3 2 1 1 1 2 2 2 2 2 2 2 2 2 2 2 3 3 2 3 3 3 5 7 7 6 5 4 4 4 4 4 3 3 2 2 2 3 3 2 2 2 2
2 2 1 1 1 2 2 2 2 2 2 2 2 2 2 2 2 2 2 3 3 3 3 6 8 7 7 5 5 5 4 3 3 2 2 2 2 2 2 2 1 1 1
2 2 1 1 1 2 2 2 2 2 1 1 2 2 2 1 1 2 1 2 2 3 3 4 4 4 6 6 5 5 4 4 3 2 2 2 2 1 1 1 2 1 1
2 2 1 1 1 1 1 2 2 2 2 1 2 2 2 1 1 1 1 2 2 2 3 3 2 2 3 5 5 5 4 3 3 3 3 3 2 2 2 2 2 2 2
2 2 2 1 1 1 2 2 2 1 1 1 1 1 1 2 2 1 1 1 1 2 2 3 3 3 2 2 4 5 5 4 3 3 4 3 3 3 3 3 3 3 3
2 2 2 2 2 1 2 3 3 3 2 0 1 1 2 2 2 2 1 1 1 1 1 2 2 2 2 2 2 4 5 5 4 4 4 4 3 3 4 4 4 4 3
2 3 3 2 2 2 2 3 3 2 3 2 0 0 0 1 1 1 2 1 1 1 1 2 2 2 2 1 3 4 4 5 5 5 5 5 4 4 4 5 5 5 4
2 3 3 3 3 2 3 3 3 3 2 3 2 1 0 0 1 1 2 2 2 1 1 2 1 1 2 2 2 3 4 5 5 6 7 6 5 4 5 5 5 5 4
2 3 3 3 3 3 3 3 3 4 4 3 2 2 2 2 1 1 2 2 3 2 2 2 2 2 1 1 3 4 5 5 6 6 7 7 6 5 5 5 6 5 5
3 4 4 4 4 4 4 3 3 4 5 5 4 3 3 2 2 1 1 2 2 2 2 2 2 2 2 1 2 4 5 6 6 7 7 7 7 6 6 6 6 6 6
4 4 5 4 4 4 4 4 3 4 4 5 5 4 3 3 2 2 2 2 2 2 2 3 2 2 1 1 2 4 3 6 6 7 7 7 7 6 6 6 6 6 6
4 4 5 5 5 5 5 5 4 4 4 5 5 5 4 3 3 2 2 3 3 3 4 3 2 2 1 1 3 2 2 5 7 7 7 7 6 5 5 5 5 5 6
4 4 5 5 5 5 5 5 4 4 5 5 4 5 5 3 3 3 3 3 3 3 4 3 3 2 2 3 4 2 3 6 7 7 7 7 6 5 5 5 5 5 6
5 6 6 5 6 6 5 5 5 5 6 5 5 6 6 5 4 3 3 3 3 3 4 4 3 3 3 3 3 3 3 3 4 6 7 7 6 5 5 5 5 5 6
6 6 6 6 6 6 6 6 6 6 7 7 6 6 7 5 6 4 4 4 4 4 4 5 4 3 4 4 3 3 4 3 3 6 7 6 6 5 5 5 5 5 6
6 6 6 7 7 7 6 6 7 7 7 7 7 7 7 7 7 5 5 5 4 4 4 4 4 3 3 3 3 3 4 3 4 5 6 6 5 5 5 5 5 5 6
6 6 7 7 7 7 7 7 7 7 7 7 7 7 7 8 8 7 6 6 5 5 4 4 4 3 3 3 2 3 3 3 3 3 4 5 6 6 6 6 6 6 7
6 6 6 6 6 6 7 7 7 7 7 7 7 7 7 9 11 9 7 6 6 5 4 4 4 3 3 3 3 3 3 3 3 3 3 3 3 3 3 5 6 7 8
5 5 6 6 6 6 10 12 9 7 7 7 7 6 7 8 11 12 12 11 10 8 7 6 5 6 5 4 3 3 3 3 4 2 2 3 2 3 3 3 6 8 8
5 5 6 6 7 8 11 12 12 7 7 7 7 6 6 6 9 7 9 10 10 11 11 8 7 8 6 6 5 5 5 4 5 2 2 4 3 4 3 5 8 9 9
5 5 6 6 7 8 11 11 12 7 6 7 7 7 7 7 7 8 7 6 6 7 8 7 7 7 6 6 6 6 5 4 3 3 3 4 3 4 4 4 8 10 10
5 5 6 6 7 7 11 11 10 5 5 7 7 7 8 8 11 12 8 7 7 6 7 9 9 8 9 9 7 3 3 4 4 3 2 3 3 3 4 4 6 9 10
5 5 6 5 6 7 10 12 10 5 6 6 6 7 10 10 12 12 9 8 8 7 5 5 5 6 6 7 8 6 5 4 3 3 3 3 3 2 3 3 3 3 5
Wind_Direction
72 64 59 52 48 50 57 56 57 57 52 45 47 50 41 40 35 20 9 36 47 54 65 68 71 70 65 64 68 67 63 68 73 68 66 70 73 71 71 72 77 79 83
75 79 73 64 54 54 58 65 66 65 58 51 45 42 41 33 35 29 19 20 35 47 53 58 60 64 61 64 66 64 61 57 61 65 64 61 65 76 76 68 69 73 72
70 77 86 73 56 57 64 66 62 63 61 50 42 33 35 33 32 30 29 23 17 31 43 47 45 44 48 56 61 58 53 49 50 58 61 57 54 65 76 67 65 61 63
79 70 85 79 58 69 73 78 69 67 56 44 33 23 20 22 33 30 33 31 24 17 23 36 34 32 30 39 46 44 44 40 35 41 47 40 38 51 59 65 61 51 51
94 89 76 84 84 80 74 82 67 70 69 47 28 22 18 23 24 28 36 36 37 34 24 26 29 30 28 29 30 27 27 27 20 19 19 9 358 27 47 48 43 31 22
120 109 92 69 105 101 82 78 83 66 79 65 53 31 6 9 27 29 26 31 37 35 30 26 16 10 21 22 21 16 12 18 8 354 346 349 324 327 347 11 15 338 320
142 135 114 91 107 136 142 120 102 89 59 41 58 32 2 3 50 34 27 39 32 23 27 24 18 9 359 7 9 7 2 5 1 344 334 318 316 301 302 312 324 329 300
156 167 157 167 134 146 149 145 120 119 74 48 76 81 0 333 344 0 11 44 28 17 17 12 9 9 359 352 2 7 359 349 345 338 337 324 316 307 283 283 288 297 305
178 182 180 175 171 165 189 184 176 153 155 188 54 128 147 225 308 312 330 358 12 13 351 345 352 355 358 356 338 354 359 347 331 317 321 320 324 324 312 285 282 282 286
203 197 185 184 188 190 207 201 182 178 162 177 236 8 132 156 186 280 301 310 335 336 322 328 326 327 333 333 334 351 351 343 326 316 310 306 310 317 321 300 292 296 296
209 213 197 193 199 203 210 217 192 182 183 183 180 182 89 355 211 196 261 279 299 298 314 300 283 295 308 315 310 332 346 336 323 313 306 303 300 307 310 327 311 300 304
214 219 215 203 204 208 214 217 207 193 194 193 190 188 184 194 207 204 240 266 279 290 302 292 282 276 279 293 311 340 344 332 326 322 312 304 306 300 303 308 317 303 297
221 219 221 216 213 215 217 216 213 208 197 197 199 207 207 212 202 215 229 260 280 294 286 274 271 272 281 290 303 337 340 334 329 324 316 311 312 303 300 305 310 311 299
221 214 217 222 222 217 216 208 215 218 209 205 211 208 211 215 209 209 205 207 268 280 269 262 275 265 290 293 305 332 323 326 322 322 316 313 316 312 305 301 302 311 308
224 211 213 216 221 219 214 206 216 216 215 214 214 211 215 218 217 218 217 206 206 239 255 247 252 262 273 275 300 304 300 309 311 311 310 310 308 307 308 304 305 309 314
221 215 218 216 219 223 217 209 216 216 213 223 216 208 213 215 214 217 221 227 223 220 245 245 249 277 287 286 289 287 283 304 303 300 299 300 295 296 299 297 296 304 311
215 217 217 217 216 219 216 211 213 214 215 222 223 213 217 210 211 213 216 222 227 217 242 265 269 269 266 265 283 282 271 267 273 287 289 287 283 285 287 289 294 303 309
219 218 215 217 219 218 214 213 215 216 216 219 222 219 219 215 215 213 214 221 223 220 226 254 268 262 262 257 262 269 283 274 265 283 284 275 275 280 284 288 289 295 300
224 221 215 218 219 217 215 220 219 219 220 224 220 221 219 211 217 217 215 218 223 229 229 235 254 261 266 260 269 277 279 276 276 279 276 269 272 280 283 286 290 290 294
225 223 222 222 222 220 220 222 223 222 220 225 225 224 222 214 215 214 216 216 216 222 226 229 243 252 259 256 245 257 275 268 273 284 271 271 276 280 283 283 285 287 289
232 228 227 227 226 223 220 217 219 221 218 223 227 228 229 226 223 220 218 210 208 214 218 226 233 242 241 239 235 237 259 277 275 260 259 256 257 257 269 278 281 279 283
235 230 229 228 230 232 231 228 223 219 219 220 225 228 232 234 230 232 231 225 217 213 216 222 232 230 233 234 241 240 249 263 269 243 245 265 249 252 256 251 269 276 276
238 237 234 229 231 236 236 234 230 222 217 219 221 223 230 234 230 227 231 232 235 234 226 222 227 228 226 224 225 239 242 250 255 259 262 267 254 257 256 266 273 275 275
241 241 240 234 235 239 237 238 236 228 218 219 219 219 223 228 227 222 219 222 228 234 234 233 229 230 233 228 224 232 243 255 265 258 245 257 255 257 269 263 272 272 273
247 245 242 236 235 241 237 237 236 225 221 223 223 222 222 225 230 226 218 216 224 236 241 239 238 236 234 233 228 218 227 242 260 253 237 248 260 274 271 265 269 270 273
253 248 248 242 238 240 239 236 233 225 222 224 225 225 228 229 231 231 219 209 216 224 220 226 235 240 234 230 231 223 216 229 251 252 225 231 255 270 278 259 250 263 271